Year,Month,Day,Hour,Minute,Value (Times are PST for temperature in C)
2022,07,23,00,00,12.30
2022,07,23,00,01,12.30
2022,07,23,00,02,12.30
2022,07,23,00,03,12.30
2022,07,23,00,04,12.30
2022,07,23,00,05,12.30
2022,07,23,00,06,12.30
2022,07,23,00,07,12.30
2022,07,23,00,08,12.30
2022,07,23,00,09,12.30
2022,07,23,00,10,12.30
2022,07,23,00,11,12.30
2022,07,23,00,12,12.30
2022,07,23,00,13,12.30
2022,07,23,00,14,12.30
2022,07,23,00,15,12.30
2022,07,23,00,16,12.30
2022,07,23,00,17,12.30
2022,07,23,00,18,12.30
2022,07,23,00,19,12.30
2022,07,23,00,20,12.30
2022,07,23,00,21,12.20
2022,07,23,00,22,12.20
2022,07,23,00,23,12.20
2022,07,23,00,24,12.20
2022,07,23,00,25,12.20
2022,07,23,00,26,12.20
2022,07,23,00,27,12.20
2022,07,23,00,28,12.20
2022,07,23,00,29,12.20
2022,07,23,00,30,12.20
2022,07,23,00,31,12.20
2022,07,23,00,32,12.20
2022,07,23,00,33,12.20
2022,07,23,00,34,12.20
2022,07,23,00,35,12.20
2022,07,23,00,36,12.20
2022,07,23,00,37,12.20
2022,07,23,00,38,12.20
2022,07,23,00,39,12.20
2022,07,23,00,40,12.20
2022,07,23,00,41,12.20
2022,07,23,00,42,12.20
2022,07,23,00,43,12.20
2022,07,23,00,44,12.10
2022,07,23,00,45,12.10
2022,07,23,00,46,12.10
2022,07,23,00,47,12.10
2022,07,23,00,48,12.10
2022,07,23,00,49,12.10
2022,07,23,00,50,12.10
2022,07,23,00,51,12.10
2022,07,23,00,52,12.10
2022,07,23,00,53,12.10
2022,07,23,00,54,12.10
2022,07,23,00,55,12.00
2022,07,23,00,56,12.00
2022,07,23,00,57,12.00
2022,07,23,00,58,12.00
2022,07,23,00,59,12.00
2022,07,23,01,00,12.00
2022,07,23,01,01,12.00
2022,07,23,01,02,11.90
2022,07,23,01,03,11.90
2022,07,23,01,04,11.90
2022,07,23,01,05,11.90
2022,07,23,01,06,11.90
2022,07,23,01,07,11.90
2022,07,23,01,08,11.90
2022,07,23,01,09,11.80
2022,07,23,01,10,11.80
2022,07,23,01,11,11.80
2022,07,23,01,12,11.80
2022,07,23,01,13,11.80
2022,07,23,01,14,11.80
2022,07,23,01,15,11.80
2022,07,23,01,16,11.80
2022,07,23,01,17,11.80
2022,07,23,01,18,11.80
2022,07,23,01,19,11.80
2022,07,23,01,20,11.70
2022,07,23,01,21,11.70
2022,07,23,01,22,11.70
2022,07,23,01,23,11.70
2022,07,23,01,24,11.70
2022,07,23,01,25,11.70
2022,07,23,01,26,11.70
2022,07,23,01,27,11.70
2022,07,23,01,28,11.70
2022,07,23,01,29,11.70
2022,07,23,01,30,11.60
2022,07,23,01,31,11.60
2022,07,23,01,32,11.60
2022,07,23,01,33,11.60
2022,07,23,01,34,11.60
2022,07,23,01,35,11.60
2022,07,23,01,36,11.60
2022,07,23,01,37,11.60
2022,07,23,01,38,11.60
2022,07,23,01,39,11.60
2022,07,23,01,40,11.60
2022,07,23,01,41,11.50
2022,07,23,01,42,11.50
2022,07,23,01,43,11.50
2022,07,23,01,44,11.50
2022,07,23,01,45,11.50
2022,07,23,01,46,11.50
2022,07,23,01,47,11.40
2022,07,23,01,48,11.40
2022,07,23,01,49,11.40
2022,07,23,01,50,11.40
2022,07,23,01,51,11.40
2022,07,23,01,52,11.40
2022,07,23,01,53,11.40
2022,07,23,01,54,11.40
2022,07,23,01,55,11.40
2022,07,23,01,56,11.40
2022,07,23,01,57,11.40
2022,07,23,01,58,11.40
2022,07,23,01,59,11.40
2022,07,23,02,00,11.40
2022,07,23,02,01,11.40
2022,07,23,02,02,11.40
2022,07,23,02,03,11.40
2022,07,23,02,04,11.40
2022,07,23,02,05,11.40
2022,07,23,02,06,11.40
2022,07,23,02,07,11.40
2022,07,23,02,08,11.40
2022,07,23,02,09,11.40
2022,07,23,02,10,11.40
2022,07,23,02,11,11.40
2022,07,23,02,12,11.40
2022,07,23,02,13,11.40
2022,07,23,02,14,11.40
2022,07,23,02,15,11.40
2022,07,23,02,16,11.40
2022,07,23,02,17,11.40
2022,07,23,02,18,11.40
2022,07,23,02,19,11.40
2022,07,23,02,20,11.40
2022,07,23,02,21,11.40
2022,07,23,02,22,11.40
2022,07,23,02,23,11.30
2022,07,23,02,24,11.30
2022,07,23,02,25,11.30
2022,07,23,02,26,11.30
2022,07,23,02,27,11.30
2022,07,23,02,28,11.30
2022,07,23,02,29,11.30
2022,07,23,02,30,11.30
2022,07,23,02,31,11.30
2022,07,23,02,32,11.30
2022,07,23,02,33,11.30
2022,07,23,02,34,11.30
2022,07,23,02,35,11.30
2022,07,23,02,36,11.30
2022,07,23,02,37,11.30
2022,07,23,02,38,11.30
2022,07,23,02,39,11.30
2022,07,23,02,40,11.30
2022,07,23,02,41,11.30
2022,07,23,02,42,11.30
2022,07,23,02,43,11.30
2022,07,23,02,44,11.30
2022,07,23,02,45,11.30
2022,07,23,02,46,11.30
2022,07,23,02,47,11.30
2022,07,23,02,48,11.30
2022,07,23,02,49,11.30
2022,07,23,02,50,11.30
2022,07,23,02,51,11.30
2022,07,23,02,52,11.30
2022,07,23,02,53,11.30
2022,07,23,02,54,11.30
2022,07,23,02,55,11.30
2022,07,23,02,56,11.30
2022,07,23,02,57,11.30
2022,07,23,02,58,11.30
2022,07,23,02,59,11.30
2022,07,23,03,00,11.30
2022,07,23,03,01,11.30
2022,07,23,03,02,11.30
2022,07,23,03,03,11.30
2022,07,23,03,04,11.30
2022,07,23,03,05,11.20
2022,07,23,03,06,11.20
2022,07,23,03,07,11.20
2022,07,23,03,08,11.20
2022,07,23,03,09,11.20
2022,07,23,03,10,11.20
2022,07,23,03,11,11.10
2022,07,23,03,12,11.10
2022,07,23,03,13,11.10
2022,07,23,03,14,11.10
2022,07,23,03,15,11.10
2022,07,23,03,16,11.10
2022,07,23,03,17,11.10
2022,07,23,03,18,11.10
2022,07,23,03,19,11.10
2022,07,23,03,20,11.10
2022,07,23,03,21,11.10
2022,07,23,03,22,11.10
2022,07,23,03,23,11.10
2022,07,23,03,24,11.10
2022,07,23,03,25,11.10
2022,07,23,03,26,11.10
2022,07,23,03,27,11.10
2022,07,23,03,28,11.10
2022,07,23,03,29,11.10
2022,07,23,03,30,11.10
2022,07,23,03,31,11.10
2022,07,23,03,32,11.10
2022,07,23,03,33,11.10
2022,07,23,03,34,11.10
2022,07,23,03,35,11.10
2022,07,23,03,36,11.10
2022,07,23,03,37,11.10
2022,07,23,03,38,11.10
2022,07,23,03,39,11.10
2022,07,23,03,40,11.10
2022,07,23,03,41,11.10
2022,07,23,03,42,11.10
2022,07,23,03,43,11.10
2022,07,23,03,44,11.10
2022,07,23,03,45,11.10
2022,07,23,03,46,11.10
2022,07,23,03,47,11.10
2022,07,23,03,48,11.10
2022,07,23,03,49,11.10
2022,07,23,03,50,11.10
2022,07,23,03,51,11.10
2022,07,23,03,52,11.10
2022,07,23,03,53,11.20
2022,07,23,03,54,11.20
2022,07,23,03,55,11.20
2022,07,23,03,56,11.20
2022,07,23,03,57,11.20
2022,07,23,03,58,11.20
2022,07,23,03,59,11.20
2022,07,23,04,00,11.20
2022,07,23,04,01,11.20
2022,07,23,04,02,11.20
2022,07,23,04,03,11.20
2022,07,23,04,04,11.20
2022,07,23,04,05,11.30
2022,07,23,04,06,11.30
2022,07,23,04,07,11.30
2022,07,23,04,08,11.30
2022,07,23,04,09,11.30
2022,07,23,04,10,11.30
2022,07,23,04,11,11.30
2022,07,23,04,12,11.30
2022,07,23,04,13,11.30
2022,07,23,04,14,11.30
2022,07,23,04,15,11.30
2022,07,23,04,16,11.30
2022,07,23,04,17,11.30
2022,07,23,04,18,11.30
2022,07,23,04,19,11.30
2022,07,23,04,20,11.30
2022,07,23,04,21,11.30
2022,07,23,04,22,11.40
2022,07,23,04,23,11.40
2022,07,23,04,24,11.40
2022,07,23,04,25,11.40
2022,07,23,04,26,11.40
2022,07,23,04,27,11.40
2022,07,23,04,28,11.40
2022,07,23,04,29,11.40
2022,07,23,04,30,11.40
2022,07,23,04,31,11.40
2022,07,23,04,32,11.40
2022,07,23,04,33,11.40
2022,07,23,04,34,11.40
2022,07,23,04,35,11.40
2022,07,23,04,36,11.50
2022,07,23,04,37,11.50
2022,07,23,04,38,11.50
2022,07,23,04,39,11.50
2022,07,23,04,40,11.50
2022,07,23,04,41,11.60
2022,07,23,04,42,11.60
2022,07,23,04,43,11.60
2022,07,23,04,44,11.60
2022,07,23,04,45,11.60
2022,07,23,04,46,11.60
2022,07,23,04,47,11.60
2022,07,23,04,48,11.60
2022,07,23,04,49,11.60
2022,07,23,04,50,11.60
2022,07,23,04,51,11.60
2022,07,23,04,52,11.60
2022,07,23,04,53,11.60
2022,07,23,04,54,11.60
2022,07,23,04,55,11.60
2022,07,23,04,56,11.60
2022,07,23,04,57,11.60
2022,07,23,04,58,11.60
2022,07,23,04,59,11.60
2022,07,23,05,00,11.60
2022,07,23,05,01,11.60
2022,07,23,05,02,11.60
2022,07,23,05,03,11.60
2022,07,23,05,04,11.50
2022,07,23,05,05,11.50
2022,07,23,05,06,11.50
2022,07,23,05,07,11.50
2022,07,23,05,08,11.50
2022,07,23,05,09,11.50
2022,07,23,05,10,11.50
2022,07,23,05,11,11.50
2022,07,23,05,12,11.50
2022,07,23,05,13,11.60
2022,07,23,05,14,11.60
2022,07,23,05,15,11.60
2022,07,23,05,16,11.60
2022,07,23,05,17,11.60
2022,07,23,05,18,11.60
2022,07,23,05,19,11.60
2022,07,23,05,20,11.60
2022,07,23,05,21,11.60
2022,07,23,05,22,11.60
2022,07,23,05,23,11.60
2022,07,23,05,24,11.60
2022,07,23,05,25,11.60
2022,07,23,05,26,11.60
2022,07,23,05,27,11.60
2022,07,23,05,28,11.60
2022,07,23,05,29,11.60
2022,07,23,05,30,11.60
2022,07,23,05,31,11.60
2022,07,23,05,32,11.60
2022,07,23,05,33,11.60
2022,07,23,05,34,11.60
2022,07,23,05,35,11.60
2022,07,23,05,36,11.60
2022,07,23,05,37,11.60
2022,07,23,05,38,11.60
2022,07,23,05,39,11.60
2022,07,23,05,40,11.60
2022,07,23,05,41,11.60
2022,07,23,05,42,11.60
2022,07,23,05,43,11.60
2022,07,23,05,44,11.70
2022,07,23,05,45,11.70
2022,07,23,05,46,11.70
2022,07,23,05,47,11.80
2022,07,23,05,48,11.80
2022,07,23,05,49,11.90
2022,07,23,05,50,11.90
2022,07,23,05,51,11.90
2022,07,23,05,52,12.00
2022,07,23,05,53,12.00
2022,07,23,05,54,12.10
2022,07,23,05,55,12.10
2022,07,23,05,56,12.10
2022,07,23,05,57,12.10
2022,07,23,05,58,12.20
2022,07,23,05,59,12.20
2022,07,23,06,00,12.20
2022,07,23,06,01,12.20
2022,07,23,06,02,12.30
2022,07,23,06,03,12.30
2022,07,23,06,04,12.30
2022,07,23,06,05,12.30
2022,07,23,06,06,12.30
2022,07,23,06,07,12.40
2022,07,23,06,08,12.40
2022,07,23,06,09,12.40
2022,07,23,06,10,12.50
2022,07,23,06,11,12.50
2022,07,23,06,12,12.50
2022,07,23,06,13,12.60
2022,07,23,06,14,12.60
2022,07,23,06,15,12.60
2022,07,23,06,16,12.70
2022,07,23,06,17,12.70
2022,07,23,06,18,12.70
2022,07,23,06,19,12.80
2022,07,23,06,20,12.80
2022,07,23,06,21,12.80
2022,07,23,06,22,12.90
2022,07,23,06,23,12.90
2022,07,23,06,24,12.90
2022,07,23,06,25,13.00
2022,07,23,06,26,13.00
2022,07,23,06,27,13.10
2022,07,23,06,28,13.10
2022,07,23,06,29,13.10
2022,07,23,06,30,13.10
2022,07,23,06,31,13.20
2022,07,23,06,32,13.20
2022,07,23,06,33,13.20
2022,07,23,06,34,13.30
2022,07,23,06,35,13.30
2022,07,23,06,36,13.30
2022,07,23,06,37,13.30
2022,07,23,06,38,13.40
2022,07,23,06,39,13.40
2022,07,23,06,40,13.40
2022,07,23,06,41,13.40
2022,07,23,06,42,13.50
2022,07,23,06,43,13.50
2022,07,23,06,44,13.60
2022,07,23,06,45,13.60
2022,07,23,06,46,13.60
2022,07,23,06,47,13.60
2022,07,23,06,48,13.60
2022,07,23,06,49,13.70
2022,07,23,06,50,13.70
2022,07,23,06,51,13.70
2022,07,23,06,52,13.70
2022,07,23,06,53,13.70
2022,07,23,06,54,13.80
2022,07,23,06,55,13.80
2022,07,23,06,56,13.80
2022,07,23,06,57,13.80
2022,07,23,06,58,13.80
2022,07,23,06,59,13.80
2022,07,23,07,00,13.80
2022,07,23,07,01,13.90
2022,07,23,07,02,13.90
2022,07,23,07,03,13.90
2022,07,23,07,04,13.90
2022,07,23,07,05,13.90
2022,07,23,07,06,13.90
2022,07,23,07,07,14.00
2022,07,23,07,08,14.00
2022,07,23,07,09,14.00
2022,07,23,07,10,14.00
2022,07,23,07,11,14.10
2022,07,23,07,12,14.10
2022,07,23,07,13,14.10
2022,07,23,07,14,14.10
2022,07,23,07,15,14.10
2022,07,23,07,16,14.20
2022,07,23,07,17,14.20
2022,07,23,07,18,14.20
2022,07,23,07,19,14.20
2022,07,23,07,20,14.20
2022,07,23,07,21,14.30
2022,07,23,07,22,14.30
2022,07,23,07,23,14.30
2022,07,23,07,24,14.30
2022,07,23,07,25,14.30
2022,07,23,07,26,14.40
2022,07,23,07,27,14.40
2022,07,23,07,28,14.40
2022,07,23,07,29,14.40
2022,07,23,07,30,14.40
2022,07,23,07,31,14.50
2022,07,23,07,32,14.50
2022,07,23,07,33,14.50
2022,07,23,07,34,14.50
2022,07,23,07,35,14.60
2022,07,23,07,36,14.60
2022,07,23,07,37,14.60
2022,07,23,07,38,14.60
2022,07,23,07,39,14.60
2022,07,23,07,40,14.60
2022,07,23,07,41,14.70
2022,07,23,07,42,14.70
2022,07,23,07,43,14.70
2022,07,23,07,44,14.70
2022,07,23,07,45,14.80
2022,07,23,07,46,14.80
2022,07,23,07,47,14.80
2022,07,23,07,48,14.80
2022,07,23,07,49,14.90
2022,07,23,07,50,14.90
2022,07,23,07,51,14.90
2022,07,23,07,52,14.90
2022,07,23,07,53,14.90
2022,07,23,07,54,14.90
2022,07,23,07,55,14.90
2022,07,23,07,56,14.90
2022,07,23,07,57,14.90
2022,07,23,07,58,14.90
2022,07,23,07,59,14.80
2022,07,23,08,00,14.80
2022,07,23,08,01,14.90
2022,07,23,08,02,14.90
2022,07,23,08,03,14.90
2022,07,23,08,04,14.90
2022,07,23,08,05,14.90
2022,07,23,08,06,14.90
2022,07,23,08,07,15.00
2022,07,23,08,08,15.00
2022,07,23,08,09,15.00
2022,07,23,08,10,15.10
2022,07,23,08,11,15.10
2022,07,23,08,12,15.10
2022,07,23,08,13,15.10
2022,07,23,08,14,15.10
2022,07,23,08,15,15.10
2022,07,23,08,16,15.10
2022,07,23,08,17,15.20
2022,07,23,08,18,15.20
2022,07,23,08,19,15.20
2022,07,23,08,20,15.20
2022,07,23,08,21,15.20
2022,07,23,08,22,15.20
2022,07,23,08,23,15.20
2022,07,23,08,24,15.30
2022,07,23,08,25,15.30
2022,07,23,08,26,15.30
2022,07,23,08,27,15.30
2022,07,23,08,28,15.30
2022,07,23,08,29,15.30
2022,07,23,08,30,15.30
2022,07,23,08,31,15.30
2022,07,23,08,32,15.40
2022,07,23,08,33,15.40
2022,07,23,08,34,15.40
2022,07,23,08,35,15.40
2022,07,23,08,36,15.40
2022,07,23,08,37,15.50
2022,07,23,08,38,15.50
2022,07,23,08,39,15.50
2022,07,23,08,40,15.50
2022,07,23,08,41,15.60
2022,07,23,08,42,15.60
2022,07,23,08,43,15.60
2022,07,23,08,44,15.60
2022,07,23,08,45,15.60
2022,07,23,08,46,15.70
2022,07,23,08,47,15.70
2022,07,23,08,48,15.70
2022,07,23,08,49,15.70
2022,07,23,08,50,15.70
2022,07,23,08,51,15.70
2022,07,23,08,52,15.70
2022,07,23,08,53,15.80
2022,07,23,08,54,15.80
2022,07,23,08,55,15.80
2022,07,23,08,56,15.80
2022,07,23,08,57,15.80
2022,07,23,08,58,15.80
2022,07,23,08,59,15.80
2022,07,23,09,00,15.90
2022,07,23,09,01,15.90
2022,07,23,09,02,16.00
2022,07,23,09,03,16.00
2022,07,23,09,04,16.10
2022,07,23,09,05,16.10
2022,07,23,09,06,16.10
2022,07,23,09,07,16.20
2022,07,23,09,08,16.20
2022,07,23,09,09,16.30
2022,07,23,09,10,16.30
2022,07,23,09,11,16.30
2022,07,23,09,12,16.40
2022,07,23,09,13,16.40
2022,07,23,09,14,16.50
2022,07,23,09,15,16.50
2022,07,23,09,16,16.60
2022,07,23,09,17,16.80
2022,07,23,09,18,16.80
2022,07,23,09,19,16.90
2022,07,23,09,20,17.00
2022,07,23,09,21,17.10
2022,07,23,09,22,17.20
2022,07,23,09,23,17.30
2022,07,23,09,24,17.30
2022,07,23,09,25,17.40
2022,07,23,09,26,17.40
2022,07,23,09,27,17.40
2022,07,23,09,28,17.50
2022,07,23,09,29,17.60
2022,07,23,09,30,17.70
2022,07,23,09,31,17.80
2022,07,23,09,32,17.80
2022,07,23,09,33,17.80
2022,07,23,09,34,17.90
2022,07,23,09,35,17.90
2022,07,23,09,36,17.90
2022,07,23,09,37,18.00
2022,07,23,09,38,18.00
2022,07,23,09,39,18.00
2022,07,23,09,40,18.00
2022,07,23,09,41,18.00
2022,07,23,09,42,17.90
2022,07,23,09,43,17.90
2022,07,23,09,44,17.90
2022,07,23,09,45,17.80
2022,07,23,09,46,17.80
2022,07,23,09,47,17.80
2022,07,23,09,48,18.00
2022,07,23,09,49,18.00
2022,07,23,09,50,18.10
2022,07,23,09,51,18.20
2022,07,23,09,52,18.30
2022,07,23,09,53,18.40
2022,07,23,09,54,18.40
2022,07,23,09,55,18.50
2022,07,23,09,56,18.60
2022,07,23,09,57,18.70
2022,07,23,09,58,18.80
2022,07,23,09,59,18.90
2022,07,23,10,00,18.90
2022,07,23,10,01,18.90
2022,07,23,10,02,19.00
2022,07,23,10,03,19.10
2022,07,23,10,04,19.00
2022,07,23,10,05,19.00
2022,07,23,10,06,18.90
2022,07,23,10,07,18.90
2022,07,23,10,08,18.90
2022,07,23,10,09,18.90
2022,07,23,10,10,18.90
2022,07,23,10,11,18.90
2022,07,23,10,12,18.90
2022,07,23,10,13,18.90
2022,07,23,10,14,19.00
2022,07,23,10,15,19.10
2022,07,23,10,16,19.10
2022,07,23,10,17,19.10
2022,07,23,10,18,19.20
2022,07,23,10,19,19.10
2022,07,23,10,20,19.10
2022,07,23,10,21,19.10
2022,07,23,10,22,19.10
2022,07,23,10,23,19.10
2022,07,23,10,24,19.10
2022,07,23,10,25,19.20
2022,07,23,10,26,19.20
2022,07,23,10,27,19.30
2022,07,23,10,28,19.40
2022,07,23,10,29,19.40
2022,07,23,10,30,19.50
2022,07,23,10,31,19.60
2022,07,23,10,32,19.60
2022,07,23,10,33,19.60
2022,07,23,10,34,19.60
2022,07,23,10,35,19.70
2022,07,23,10,36,19.70
2022,07,23,10,37,19.70
2022,07,23,10,38,19.80
2022,07,23,10,39,19.80
2022,07,23,10,40,19.90
2022,07,23,10,41,19.90
2022,07,23,10,42,20.00
2022,07,23,10,43,20.00
2022,07,23,10,44,20.10
2022,07,23,10,45,20.10
2022,07,23,10,46,20.20
2022,07,23,10,47,20.20
2022,07,23,10,48,20.20
2022,07,23,10,49,20.20
2022,07,23,10,50,20.10
2022,07,23,10,51,20.10
2022,07,23,10,52,20.10
2022,07,23,10,53,20.10
2022,07,23,10,54,20.10
2022,07,23,10,55,20.10
2022,07,23,10,56,20.10
2022,07,23,10,57,20.20
2022,07,23,10,58,20.20
2022,07,23,10,59,20.30
2022,07,23,11,00,20.30
2022,07,23,11,01,20.40
2022,07,23,11,02,20.50
2022,07,23,11,03,20.60
2022,07,23,11,04,20.60
2022,07,23,11,05,20.70
2022,07,23,11,06,20.70
2022,07,23,11,07,20.80
2022,07,23,11,08,20.80
2022,07,23,11,09,20.80
2022,07,23,11,10,20.90
2022,07,23,11,11,20.90
2022,07,23,11,12,21.00
2022,07,23,11,13,21.10
2022,07,23,11,14,21.10
2022,07,23,11,15,21.10
2022,07,23,11,16,21.20
2022,07,23,11,17,21.20
2022,07,23,11,18,21.20
2022,07,23,11,19,21.20
2022,07,23,11,20,21.20
2022,07,23,11,21,21.20
2022,07,23,11,22,21.20
2022,07,23,11,23,21.20
2022,07,23,11,24,21.20
2022,07,23,11,25,21.30
2022,07,23,11,26,21.30
2022,07,23,11,27,21.40
2022,07,23,11,28,21.40
2022,07,23,11,29,21.40
2022,07,23,11,30,21.40
2022,07,23,11,31,21.40
2022,07,23,11,32,21.30
2022,07,23,11,33,21.30
2022,07,23,11,34,21.30
2022,07,23,11,35,21.30
2022,07,23,11,36,21.40
2022,07,23,11,37,21.40
2022,07,23,11,38,21.40
2022,07,23,11,39,21.50
2022,07,23,11,40,21.60
2022,07,23,11,41,21.60
2022,07,23,11,42,21.60
2022,07,23,11,43,21.60
2022,07,23,11,44,21.60
2022,07,23,11,45,21.60
2022,07,23,11,46,21.60
2022,07,23,11,47,21.60
2022,07,23,11,48,21.60
2022,07,23,11,49,21.60
2022,07,23,11,50,21.70
2022,07,23,11,51,21.70
2022,07,23,11,52,21.70
2022,07,23,11,53,21.70
2022,07,23,11,54,21.70
2022,07,23,11,55,21.80
2022,07,23,11,56,21.80
2022,07,23,11,57,21.90
2022,07,23,11,58,21.90
2022,07,23,11,59,21.80
2022,07,23,12,00,21.80
2022,07,23,12,01,21.70
2022,07,23,12,02,21.70
2022,07,23,12,03,21.70
2022,07,23,12,04,21.70
2022,07,23,12,05,21.70
2022,07,23,12,06,21.80
2022,07,23,12,07,21.80
2022,07,23,12,08,21.80
2022,07,23,12,09,21.80
2022,07,23,12,10,21.80
2022,07,23,12,11,21.80
2022,07,23,12,12,21.80
2022,07,23,12,13,21.90
2022,07,23,12,14,21.90
2022,07,23,12,15,21.90
2022,07,23,12,16,21.90
2022,07,23,12,17,22.00
2022,07,23,12,18,22.00
2022,07,23,12,19,22.00
2022,07,23,12,20,22.00
2022,07,23,12,21,22.00
2022,07,23,12,22,22.00
2022,07,23,12,23,22.00
2022,07,23,12,24,22.00
2022,07,23,12,25,21.90
2022,07,23,12,26,21.90
2022,07,23,12,27,22.00
2022,07,23,12,28,22.00
2022,07,23,12,29,22.00
2022,07,23,12,30,22.10
2022,07,23,12,31,22.10
2022,07,23,12,32,22.10
2022,07,23,12,33,22.10
2022,07,23,12,34,22.10
2022,07,23,12,35,22.20
2022,07,23,12,36,22.20
2022,07,23,12,37,22.20
2022,07,23,12,38,22.20
2022,07,23,12,39,22.20
2022,07,23,12,40,22.20
2022,07,23,12,41,22.30
2022,07,23,12,42,22.30
2022,07,23,12,43,22.30
2022,07,23,12,44,22.30
2022,07,23,12,45,22.30
2022,07,23,12,46,22.30
2022,07,23,12,47,22.30
2022,07,23,12,48,22.30
2022,07,23,12,49,22.40
2022,07,23,12,50,22.40
2022,07,23,12,51,22.40
2022,07,23,12,52,22.40
2022,07,23,12,53,22.40
2022,07,23,12,54,22.40
2022,07,23,12,55,22.40
2022,07,23,12,56,22.40
2022,07,23,12,57,22.40
2022,07,23,12,58,22.40
2022,07,23,12,59,22.50
2022,07,23,13,00,22.50
2022,07,23,13,01,22.60
2022,07,23,13,02,22.60
2022,07,23,13,03,22.60
2022,07,23,13,04,22.60
2022,07,23,13,05,22.60
2022,07,23,13,06,22.60
2022,07,23,13,07,22.60
2022,07,23,13,08,22.60
2022,07,23,13,09,22.60
2022,07,23,13,10,22.60
2022,07,23,13,11,22.60
2022,07,23,13,12,22.60
2022,07,23,13,13,22.60
2022,07,23,13,14,22.60
2022,07,23,13,15,22.60
2022,07,23,13,16,22.60
2022,07,23,13,17,22.70
2022,07,23,13,18,22.70
2022,07,23,13,19,22.70
2022,07,23,13,20,22.70
2022,07,23,13,21,22.70
2022,07,23,13,22,22.80
2022,07,23,13,23,22.80
2022,07,23,13,24,22.80
2022,07,23,13,25,22.80
2022,07,23,13,26,22.80
2022,07,23,13,27,22.80
2022,07,23,13,28,22.90
2022,07,23,13,29,22.90
2022,07,23,13,30,23.00
2022,07,23,13,31,23.00
2022,07,23,13,32,23.00
2022,07,23,13,33,22.90
2022,07,23,13,34,22.90
2022,07,23,13,35,22.90
2022,07,23,13,36,22.90
2022,07,23,13,37,22.90
2022,07,23,13,38,22.90
2022,07,23,13,39,22.90
2022,07,23,13,40,22.80
2022,07,23,13,41,22.80
2022,07,23,13,42,22.70
2022,07,23,13,43,22.70
2022,07,23,13,44,22.70
2022,07,23,13,45,22.70
2022,07,23,13,46,22.70
2022,07,23,13,47,22.80
2022,07,23,13,48,22.90
2022,07,23,13,49,22.90
2022,07,23,13,50,23.00
2022,07,23,13,51,23.10
2022,07,23,13,52,23.10
2022,07,23,13,53,23.10
2022,07,23,13,54,23.20
2022,07,23,13,55,23.20
2022,07,23,13,56,23.20
2022,07,23,13,57,23.30
2022,07,23,13,58,23.30
2022,07,23,13,59,23.30
2022,07,23,14,00,23.30
2022,07,23,14,01,23.30
2022,07,23,14,02,23.30
2022,07,23,14,03,23.30
2022,07,23,14,04,23.30
2022,07,23,14,05,23.30
2022,07,23,14,06,23.20
2022,07,23,14,07,23.20
2022,07,23,14,08,23.20
2022,07,23,14,09,23.20
2022,07,23,14,10,23.30
2022,07,23,14,11,23.30
2022,07,23,14,12,23.30
2022,07,23,14,13,23.30
2022,07,23,14,14,23.40
2022,07,23,14,15,23.40
2022,07,23,14,16,23.50
2022,07,23,14,17,23.60
2022,07,23,14,18,23.60
2022,07,23,14,19,23.60
2022,07,23,14,20,23.70
2022,07,23,14,21,23.70
2022,07,23,14,22,23.70
2022,07,23,14,23,23.70
2022,07,23,14,24,23.60
2022,07,23,14,25,23.60
2022,07,23,14,26,23.60
2022,07,23,14,27,23.50
2022,07,23,14,28,23.40
2022,07,23,14,29,23.40
2022,07,23,14,30,23.40
2022,07,23,14,31,23.30
2022,07,23,14,32,23.30
2022,07,23,14,33,23.30
2022,07,23,14,34,23.30
2022,07,23,14,35,23.20
2022,07,23,14,36,23.20
2022,07,23,14,37,23.30
2022,07,23,14,38,23.20
2022,07,23,14,39,23.30
2022,07,23,14,40,23.30
2022,07,23,14,41,23.20
2022,07,23,14,42,23.20
2022,07,23,14,43,23.20
2022,07,23,14,44,23.20
2022,07,23,14,45,23.10
2022,07,23,14,46,23.10
2022,07,23,14,47,23.10
2022,07,23,14,48,23.00
2022,07,23,14,49,23.00
2022,07,23,14,50,23.00
2022,07,23,14,51,23.10
2022,07,23,14,52,23.10
2022,07,23,14,53,23.10
2022,07,23,14,54,23.10
2022,07,23,14,55,23.10
2022,07,23,14,56,23.10
2022,07,23,14,57,23.00
2022,07,23,14,58,23.00
2022,07,23,14,59,23.10
2022,07,23,15,00,23.10
2022,07,23,15,01,23.10
2022,07,23,15,02,23.10
2022,07,23,15,03,23.10
2022,07,23,15,04,23.10
2022,07,23,15,05,23.10
2022,07,23,15,06,23.20
2022,07,23,15,07,23.20
2022,07,23,15,08,23.20
2022,07,23,15,09,23.20
2022,07,23,15,10,23.30
2022,07,23,15,11,23.30
2022,07,23,15,12,23.30
2022,07,23,15,13,23.40
2022,07,23,15,14,23.40
2022,07,23,15,15,23.40
2022,07,23,15,16,23.40
2022,07,23,15,17,23.40
2022,07,23,15,18,23.40
2022,07,23,15,19,23.50
2022,07,23,15,20,23.50
2022,07,23,15,21,23.50
2022,07,23,15,22,23.60
2022,07,23,15,23,23.60
2022,07,23,15,24,23.60
2022,07,23,15,25,23.60
2022,07,23,15,26,23.60
2022,07,23,15,27,23.60
2022,07,23,15,28,23.60
2022,07,23,15,29,23.50
2022,07,23,15,30,23.60
2022,07,23,15,31,23.50
2022,07,23,15,32,23.50
2022,07,23,15,33,23.50
2022,07,23,15,34,23.40
2022,07,23,15,35,23.30
2022,07,23,15,36,23.30
2022,07,23,15,37,23.20
2022,07,23,15,38,23.10
2022,07,23,15,39,23.10
2022,07,23,15,40,23.00
2022,07,23,15,41,22.90
2022,07,23,15,42,22.80
2022,07,23,15,43,22.80
2022,07,23,15,44,22.80
2022,07,23,15,45,22.70
2022,07,23,15,46,22.70
2022,07,23,15,47,22.70
2022,07,23,15,48,22.60
2022,07,23,15,49,22.60
2022,07,23,15,50,22.60
2022,07,23,15,51,22.60
2022,07,23,15,52,22.60
2022,07,23,15,53,22.60
2022,07,23,15,54,22.50
2022,07,23,15,55,22.50
2022,07,23,15,56,22.40
2022,07,23,15,57,22.40
2022,07,23,15,58,22.30
2022,07,23,15,59,22.30
2022,07,23,16,00,22.20
2022,07,23,16,01,22.20
2022,07,23,16,02,22.20
2022,07,23,16,03,22.20
2022,07,23,16,04,22.20
2022,07,23,16,05,22.20
2022,07,23,16,06,22.20
2022,07,23,16,07,22.20
2022,07,23,16,08,22.20
2022,07,23,16,09,22.20
2022,07,23,16,10,22.20
2022,07,23,16,11,22.20
2022,07,23,16,12,22.10
2022,07,23,16,13,22.20
2022,07,23,16,14,22.10
2022,07,23,16,15,22.10
2022,07,23,16,16,22.10
2022,07,23,16,17,22.00
2022,07,23,16,18,22.00
2022,07,23,16,19,21.90
2022,07,23,16,20,21.90
2022,07,23,16,21,22.00
2022,07,23,16,22,22.00
2022,07,23,16,23,22.00
2022,07,23,16,24,22.00
2022,07,23,16,25,22.00
2022,07,23,16,26,22.00
2022,07,23,16,27,22.00
2022,07,23,16,28,22.10
2022,07,23,16,29,22.00
2022,07,23,16,30,22.00
2022,07,23,16,31,21.90
2022,07,23,16,32,21.80
2022,07,23,16,33,21.80
2022,07,23,16,34,21.80
2022,07,23,16,35,21.80
2022,07,23,16,36,21.80
2022,07,23,16,37,21.80
2022,07,23,16,38,21.80
2022,07,23,16,39,21.80
2022,07,23,16,40,21.80
2022,07,23,16,41,21.80
2022,07,23,16,42,21.90
2022,07,23,16,43,21.80
2022,07,23,16,44,21.80
2022,07,23,16,45,21.80
2022,07,23,16,46,21.80
2022,07,23,16,47,21.80
2022,07,23,16,48,21.80
2022,07,23,16,49,21.80
2022,07,23,16,50,21.80
2022,07,23,16,51,21.90
2022,07,23,16,52,21.90
2022,07,23,16,53,21.90
2022,07,23,16,54,21.90
2022,07,23,16,55,21.90
2022,07,23,16,56,22.00
2022,07,23,16,57,22.00
2022,07,23,16,58,22.00
2022,07,23,16,59,22.00
2022,07,23,17,00,22.10
2022,07,23,17,01,22.10
2022,07,23,17,02,22.10
2022,07,23,17,03,22.20
2022,07,23,17,04,22.30
2022,07,23,17,05,22.30
2022,07,23,17,06,22.40
2022,07,23,17,07,22.40
2022,07,23,17,08,22.50
2022,07,23,17,09,22.60
2022,07,23,17,10,22.60
2022,07,23,17,11,22.70
2022,07,23,17,12,22.70
2022,07,23,17,13,22.70
2022,07,23,17,14,22.80
2022,07,23,17,15,22.80
2022,07,23,17,16,22.80
2022,07,23,17,17,22.80
2022,07,23,17,18,22.80
2022,07,23,17,19,22.80